Timestamp,Backdown Percentage,Timestamp,Boost Pressure,Timestamp,Coolant,Timestamp,ECM Voltage,Timestamp,EGT,Timestamp,Engine Load,Timestamp,Fuel Pressure,Timestamp,Intake Air Temperature,Timestamp,Oil Pressure,Timestamp,RPM,Timestamp,Throttle Position,Timestamp,Transmission Slip,Timestamp,Transmission Temperature,Timestamp,Vehicle Speed,Timestamp,CanBus Fuel,Timestamp,Fuel Temp,Timestamp,Timing
2017/01/13 09:43:14.738,0,2017/01/13 09:43:14.738,2,2017/01/13 09:43:14.738,174,2017/01/13 09:43:14.738,14.5,2017/01/13 09:43:14.738,640,2017/01/13 09:43:14.738,29,2017/01/13 09:43:14.738,19,2017/01/13 09:43:14.738,73,2017/01/13 09:43:14.739,58,2017/01/13 09:43:14.739,1525,2017/01/13 09:43:14.739,18,2017/01/13 09:43:14.739,2,2017/01/13 09:43:14.739,60,2017/01/13 09:43:14.739,38,2017/01/13 09:43:14.739,1215,2017/01/13 09:43:14.739,57,2017/01/13 09:43:14.739,19.58
2017/01/13 09:43:14.988,0,2017/01/13 09:43:14.988,2,2017/01/13 09:43:14.988,174,2017/01/13 09:43:14.988,14.5,2017/01/13 09:43:14.988,642,2017/01/13 09:43:14.988,29,2017/01/13 09:43:14.988,19,2017/01/13 09:43:14.988,73,2017/01/13 09:43:14.989,58,2017/01/13 09:43:14.989,1533,2017/01/13 09:43:14.989,18,2017/01/13 09:43:14.989,3,2017/01/13 09:43:14.989,60,2017/01/13 09:43:14.989,38,2017/01/13 09:43:14.989,1219,2017/01/13 09:43:14.989,57,2017/01/13 09:43:14.989,19.58
2017/01/13 09:43:15.238,0,2017/01/13 09:43:15.239,2,2017/01/13 09:43:15.239,174,2017/01/13 09:43:15.239,14.5,2017/01/13 09:43:15.239,643,2017/01/13 09:43:15.239,29,2017/01/13 09:43:15.239,18,2017/01/13 09:43:15.239,73,2017/01/13 09:43:15.239,60,2017/01/13 09:43:15.239,1533,2017/01/13 09:43:15.239,18,2017/01/13 09:43:15.240,3,2017/01/13 09:43:15.240,60,2017/01/13 09:43:15.240,38,2017/01/13 09:43:15.240,1219,2017/01/13 09:43:15.240,57,2017/01/13 09:43:15.240,19.58
2017/01/13 09:43:15.489,0,2017/01/13 09:43:15.489,2,2017/01/13 09:43:15.489,174,2017/01/13 09:43:15.489,14.6,2017/01/13 09:43:15.489,643,2017/01/13 09:43:15.489,28,2017/01/13 09:43:15.489,18,2017/01/13 09:43:15.489,73,2017/01/13 09:43:15.490,60,2017/01/13 09:43:15.490,1540,2017/01/13 09:43:15.490,18,2017/01/13 09:43:15.490,3,2017/01/13 09:43:15.490,60,2017/01/13 09:43:15.490,39,2017/01/13 09:43:15.490,1190,2017/01/13 09:43:15.490,57,2017/01/13 09:43:15.490,19.58
2017/01/13 09:43:15.739,0,2017/01/13 09:43:15.739,2,2017/01/13 09:43:15.739,174,2017/01/13 09:43:15.739,14.6,2017/01/13 09:43:15.739,644,2017/01/13 09:43:15.739,28,2017/01/13 09:43:15.740,18,2017/01/13 09:43:15.740,73,2017/01/13 09:43:15.740,59,2017/01/13 09:43:15.740,1550,2017/01/13 09:43:15.740,18,2017/01/13 09:43:15.740,1,2017/01/13 09:43:15.740,60,2017/01/13 09:43:15.740,39,2017/01/13 09:43:15.741,1190,2017/01/13 09:43:15.741,57,2017/01/13 09:43:15.741,19.58
2017/01/13 09:43:15.989,0,2017/01/13 09:43:15.989,2,2017/01/13 09:43:15.989,176,2017/01/13 09:43:15.989,14.5,2017/01/13 09:43:15.989,644,2017/01/13 09:43:15.990,28,2017/01/13 09:43:15.990,18,2017/01/13 09:43:15.990,73,2017/01/13 09:43:15.990,59,2017/01/13 09:43:15.990,1550,2017/01/13 09:43:15.990,18,2017/01/13 09:43:15.990,1,2017/01/13 09:43:15.990,60,2017/01/13 09:43:15.990,39,2017/01/13 09:43:15.990,1183,2017/01/13 09:43:15.991,57,2017/01/13 09:43:15.991,19.60
2017/01/13 09:43:16.239,0,2017/01/13 09:43:16.239,2,2017/01/13 09:43:16.240,176,2017/01/13 09:43:16.240,14.5,2017/01/13 09:43:16.240,645,2017/01/13 09:43:16.240,28,2017/01/13 09:43:16.240,18,2017/01/13 09:43:16.240,73,2017/01/13 09:43:16.240,59,2017/01/13 09:43:16.240,1559,2017/01/13 09:43:16.240,18,2017/01/13 09:43:16.240,2,2017/01/13 09:43:16.241,60,2017/01/13 09:43:16.241,39,2017/01/13 09:43:16.241,1158,2017/01/13 09:43:16.241,57,2017/01/13 09:43:16.241,19.60
2017/01/13 09:43:16.492,0,2017/01/13 09:43:16.492,2,2017/01/13 09:43:16.493,176,2017/01/13 09:43:16.493,14.3,2017/01/13 09:43:16.494,646,2017/01/13 09:43:16.494,28,2017/01/13 09:43:16.494,19,2017/01/13 09:43:16.494,73,2017/01/13 09:43:16.495,59,2017/01/13 09:43:16.495,1559,2017/01/13 09:43:16.495,18,2017/01/13 09:43:16.495,2,2017/01/13 09:43:16.496,60,2017/01/13 09:43:16.496,39,2017/01/13 09:43:16.496,1158,2017/01/13 09:43:16.497,57,2017/01/13 09:43:16.497,19.60
2017/01/13 09:43:16.742,0,2017/01/13 09:43:16.742,2,2017/01/13 09:43:16.742,176,2017/01/13 09:43:16.743,14.5,2017/01/13 09:43:16.743,646,2017/01/13 09:43:16.743,26,2017/01/13 09:43:16.743,19,2017/01/13 09:43:16.743,73,2017/01/13 09:43:16.743,59,2017/01/13 09:43:16.744,1562,2017/01/13 09:43:16.744,18,2017/01/13 09:43:16.744,2,2017/01/13 09:43:16.744,60,2017/01/13 09:43:16.744,39,2017/01/13 09:43:16.744,1112,2017/01/13 09:43:16.744,57,2017/01/13 09:43:16.744,19.61
2017/01/13 09:43:16.990,0,2017/01/13 09:43:16.990,2,2017/01/13 09:43:16.990,176,2017/01/13 09:43:16.991,14.5,2017/01/13 09:43:16.991,642,2017/01/13 09:43:16.991,26,2017/01/13 09:43:16.991,19,2017/01/13 09:43:16.991,73,2017/01/13 09:43:16.991,59,2017/01/13 09:43:16.991,1570,2017/01/13 09:43:16.991,18,2017/01/13 09:43:16.991,2,2017/01/13 09:43:16.991,60,2017/01/13 09:43:16.992,39,2017/01/13 09:43:16.992,1112,2017/01/13 09:43:16.992,57,2017/01/13 09:43:16.992,19.61
2017/01/13 09:43:17.241,0,2017/01/13 09:43:17.241,2,2017/01/13 09:43:17.241,176,2017/01/13 09:43:17.241,14.5,2017/01/13 09:43:17.241,637,2017/01/13 09:43:17.241,26,2017/01/13 09:43:17.241,19,2017/01/13 09:43:17.241,73,2017/01/13 09:43:17.241,60,2017/01/13 09:43:17.242,1570,2017/01/13 09:43:17.242,18,2017/01/13 09:43:17.242,2,2017/01/13 09:43:17.242,60,2017/01/13 09:43:17.242,39,2017/01/13 09:43:17.242,1089,2017/01/13 09:43:17.242,57,2017/01/13 09:43:17.242,19.61
2017/01/13 09:43:17.490,0,2017/01/13 09:43:17.490,2,2017/01/13 09:43:17.490,176,2017/01/13 09:43:17.490,14.3,2017/01/13 09:43:17.490,637,2017/01/13 09:43:17.490,25,2017/01/13 09:43:17.491,19,2017/01/13 09:43:17.491,73,2017/01/13 09:43:17.491,60,2017/01/13 09:43:17.491,1579,2017/01/13 09:43:17.491,17,2017/01/13 09:43:17.491,0,2017/01/13 09:43:17.491,60,2017/01/13 09:43:17.491,40,2017/01/13 09:43:17.491,1053,2017/01/13 09:43:17.491,57,2017/01/13 09:43:17.491,14.86
2017/01/13 09:43:17.740,0,2017/01/13 09:43:17.740,2,2017/01/13 09:43:17.740,176,2017/01/13 09:43:17.740,14.3,2017/01/13 09:43:17.741,639,2017/01/13 09:43:17.741,25,2017/01/13 09:43:17.741,18,2017/01/13 09:43:17.741,73,2017/01/13 09:43:17.741,62,2017/01/13 09:43:17.741,1585,2017/01/13 09:43:17.741,17,2017/01/13 09:43:17.741,1,2017/01/13 09:43:17.741,60,2017/01/13 09:43:17.741,40,2017/01/13 09:43:17.742,1053,2017/01/13 09:43:17.742,57,2017/01/13 09:43:17.742,14.86
2017/01/13 09:43:17.990,0,2017/01/13 09:43:17.991,2,2017/01/13 09:43:17.991,176,2017/01/13 09:43:17.991,14.6,2017/01/13 09:43:17.991,639,2017/01/13 09:43:17.991,25,2017/01/13 09:43:17.991,18,2017/01/13 09:43:17.991,73,2017/01/13 09:43:17.991,62,2017/01/13 09:43:17.991,1585,2017/01/13 09:43:17.991,17,2017/01/13 09:43:17.992,1,2017/01/13 09:43:17.992,60,2017/01/13 09:43:17.992,40,2017/01/13 09:43:17.992,1029,2017/01/13 09:43:17.992,57,2017/01/13 09:43:17.992,14.91
2017/01/13 09:43:18.241,0,2017/01/13 09:43:18.241,2,2017/01/13 09:43:18.241,176,2017/01/13 09:43:18.241,14.6,2017/01/13 09:43:18.241,634,2017/01/13 09:43:18.241,25,2017/01/13 09:43:18.241,19,2017/01/13 09:43:18.241,73,2017/01/13 09:43:18.242,58,2017/01/13 09:43:18.242,1593,2017/01/13 09:43:18.242,17,2017/01/13 09:43:18.242,1,2017/01/13 09:43:18.242,60,2017/01/13 09:43:18.242,40,2017/01/13 09:43:18.242,1020,2017/01/13 09:43:18.242,57,2017/01/13 09:43:18.242,14.92
2017/01/13 09:43:18.491,0,2017/01/13 09:43:18.491,2,2017/01/13 09:43:18.491,176,2017/01/13 09:43:18.492,14.5,2017/01/13 09:43:18.492,632,2017/01/13 09:43:18.492,24,2017/01/13 09:43:18.492,19,2017/01/13 09:43:18.492,73,2017/01/13 09:43:18.492,60,2017/01/13 09:43:18.492,1593,2017/01/13 09:43:18.492,17,2017/01/13 09:43:18.492,1,2017/01/13 09:43:18.492,60,2017/01/13 09:43:18.493,40,2017/01/13 09:43:18.493,1020,2017/01/13 09:43:18.493,57,2017/01/13 09:43:18.493,14.92
2017/01/13 09:43:18.742,0,2017/01/13 09:43:18.742,2,2017/01/13 09:43:18.742,176,2017/01/13 09:43:18.742,14.5,2017/01/13 09:43:18.742,632,2017/01/13 09:43:18.742,24,2017/01/13 09:43:18.742,19,2017/01/13 09:43:18.742,73,2017/01/13 09:43:18.742,60,2017/01/13 09:43:18.743,1605,2017/01/13 09:43:18.743,17,2017/01/13 09:43:18.743,2,2017/01/13 09:43:18.743,60,2017/01/13 09:43:18.743,40,2017/01/13 09:43:18.743,1012,2017/01/13 09:43:18.743,57,2017/01/13 09:43:18.743,14.95
2017/01/13 09:43:18.991,0,2017/01/13 09:43:18.991,2,2017/01/13 09:43:18.991,176,2017/01/13 09:43:18.991,14.5,2017/01/13 09:43:18.992,628,2017/01/13 09:43:18.992,24,2017/01/13 09:43:18.992,18,2017/01/13 09:43:18.992,73,2017/01/13 09:43:18.992,59,2017/01/13 09:43:18.992,1611,2017/01/13 09:43:18.992,18,2017/01/13 09:43:18.992,2,2017/01/13 09:43:18.993,60,2017/01/13 09:43:18.993,40,2017/01/13 09:43:18.993,1012,2017/01/13 09:43:18.993,57,2017/01/13 09:43:18.993,14.95
2017/01/13 09:43:19.247,0,2017/01/13 09:43:19.247,2,2017/01/13 09:43:19.248,176,2017/01/13 09:43:19.248,14.5,2017/01/13 09:43:19.248,627,2017/01/13 09:43:19.248,24,2017/01/13 09:43:19.248,20,2017/01/13 09:43:19.248,73,2017/01/13 09:43:19.249,60,2017/01/13 09:43:19.249,1611,2017/01/13 09:43:19.249,18,2017/01/13 09:43:19.249,2,2017/01/13 09:43:19.249,60,2017/01/13 09:43:19.249,41,2017/01/13 09:43:19.250,997,2017/01/13 09:43:19.250,57,2017/01/13 09:43:19.250,15.00
2017/01/13 09:43:19.492,0,2017/01/13 09:43:19.493,2,2017/01/13 09:43:19.493,176,2017/01/13 09:43:19.493,14.5,2017/01/13 09:43:19.493,627,2017/01/13 09:43:19.493,23,2017/01/13 09:43:19.493,20,2017/01/13 09:43:19.493,73,2017/01/13 09:43:19.493,60,2017/01/13 09:43:19.493,1617,2017/01/13 09:43:19.493,18,2017/01/13 09:43:19.493,0,2017/01/13 09:43:19.494,60,2017/01/13 09:43:19.494,41,2017/01/13 09:43:19.494,999,2017/01/13 09:43:19.494,57,2017/01/13 09:43:19.494,15.02
2017/01/13 09:43:19.745,0,2017/01/13 09:43:19.745,2,2017/01/13 09:43:19.745,176,2017/01/13 09:43:19.745,14.5,2017/01/13 09:43:19.745,626,2017/01/13 09:43:19.745,23,2017/01/13 09:43:19.745,19,2017/01/13 09:43:19.746,73,2017/01/13 09:43:19.746,60,2017/01/13 09:43:19.746,1622,2017/01/13 09:43:19.746,18,2017/01/13 09:43:19.746,1,2017/01/13 09:43:19.746,60,2017/01/13 09:43:19.746,41,2017/01/13 09:43:19.746,999,2017/01/13 09:43:19.746,57,2017/01/13 09:43:19.746,15.02
2017/01/13 09:43:19.993,0,2017/01/13 09:43:19.993,2,2017/01/13 09:43:19.993,176,2017/01/13 09:43:19.993,14.5,2017/01/13 09:43:19.993,623,2017/01/13 09:43:19.993,24,2017/01/13 09:43:19.993,20,2017/01/13 09:43:19.993,73,2017/01/13 09:43:19.993,63,2017/01/13 09:43:19.993,1622,2017/01/13 09:43:19.994,18,2017/01/13 09:43:19.994,1,2017/01/13 09:43:19.994,60,2017/01/13 09:43:19.994,41,2017/01/13 09:43:19.994,988,2017/01/13 09:43:19.994,57,2017/01/13 09:43:19.994,15.04
2017/01/13 09:43:20.243,0,2017/01/13 09:43:20.243,2,2017/01/13 09:43:20.243,176,2017/01/13 09:43:20.243,14.5,2017/01/13 09:43:20.243,623,2017/01/13 09:43:20.243,24,2017/01/13 09:43:20.243,20,2017/01/13 09:43:20.244,73,2017/01/13 09:43:20.244,63,2017/01/13 09:43:20.244,1627,2017/01/13 09:43:20.244,18,2017/01/13 09:43:20.244,1,2017/01/13 09:43:20.244,60,2017/01/13 09:43:20.244,41,2017/01/13 09:43:20.245,981,2017/01/13 09:43:20.245,57,2017/01/13 09:43:20.245,15.05
2017/01/13 09:43:20.494,0,2017/01/13 09:43:20.494,2,2017/01/13 09:43:20.494,176,2017/01/13 09:43:20.494,14.5,2017/01/13 09:43:20.494,620,2017/01/13 09:43:20.494,23,2017/01/13 09:43:20.494,19,2017/01/13 09:43:20.495,73,2017/01/13 09:43:20.495,63,2017/01/13 09:43:20.495,1627,2017/01/13 09:43:20.495,18,2017/01/13 09:43:20.495,1,2017/01/13 09:43:20.495,60,2017/01/13 09:43:20.495,41,2017/01/13 09:43:20.495,981,2017/01/13 09:43:20.496,57,2017/01/13 09:43:20.496,15.05
2017/01/13 09:43:20.744,0,2017/01/13 09:43:20.744,2,2017/01/13 09:43:20.744,176,2017/01/13 09:43:20.744,14.3,2017/01/13 09:43:20.744,620,2017/01/13 09:43:20.744,24,2017/01/13 09:43:20.744,19,2017/01/13 09:43:20.744,73,2017/01/13 09:43:20.745,63,2017/01/13 09:43:20.745,1631,2017/01/13 09:43:20.745,18,2017/01/13 09:43:20.745,1,2017/01/13 09:43:20.745,60,2017/01/13 09:43:20.745,41,2017/01/13 09:43:20.745,968,2017/01/13 09:43:20.745,57,2017/01/13 09:43:20.745,19.71
2017/01/13 09:43:20.994,0,2017/01/13 09:43:20.994,2,2017/01/13 09:43:20.994,176,2017/01/13 09:43:20.994,14.3,2017/01/13 09:43:20.994,617,2017/01/13 09:43:20.994,24,2017/01/13 09:43:20.995,19,2017/01/13 09:43:20.995,73,2017/01/13 09:43:20.995,60,2017/01/13 09:43:20.995,1636,2017/01/13 09:43:20.995,18,2017/01/13 09:43:20.995,2,2017/01/13 09:43:20.995,60,2017/01/13 09:43:20.995,41,2017/01/13 09:43:20.995,968,2017/01/13 09:43:20.995,57,2017/01/13 09:43:20.995,19.71
2017/01/13 09:43:21.244,0,2017/01/13 09:43:21.244,2,2017/01/13 09:43:21.244,176,2017/01/13 09:43:21.244,14.5,2017/01/13 09:43:21.244,614,2017/01/13 09:43:21.245,23,2017/01/13 09:43:21.245,19,2017/01/13 09:43:21.245,73,2017/01/13 09:43:21.245,60,2017/01/13 09:43:21.245,1636,2017/01/13 09:43:21.245,18,2017/01/13 09:43:21.245,2,2017/01/13 09:43:21.245,60,2017/01/13 09:43:21.245,41,2017/01/13 09:43:21.245,968,2017/01/13 09:43:21.245,57,2017/01/13 09:43:21.246,19.72
2017/01/13 09:43:21.494,0,2017/01/13 09:43:21.494,2,2017/01/13 09:43:21.494,176,2017/01/13 09:43:21.495,14.5,2017/01/13 09:43:21.495,614,2017/01/13 09:43:21.495,23,2017/01/13 09:43:21.495,19,2017/01/13 09:43:21.495,73,2017/01/13 09:43:21.495,60,2017/01/13 09:43:21.495,1642,2017/01/13 09:43:21.495,18,2017/01/13 09:43:21.495,2,2017/01/13 09:43:21.495,60,2017/01/13 09:43:21.495,41,2017/01/13 09:43:21.496,969,2017/01/13 09:43:21.496,57,2017/01/13 09:43:21.496,19.72
2017/01/13 09:43:21.744,0,2017/01/13 09:43:21.744,2,2017/01/13 09:43:21.744,176,2017/01/13 09:43:21.744,14.5,2017/01/13 09:43:21.744,609,2017/01/13 09:43:21.744,23,2017/01/13 09:43:21.744,19,2017/01/13 09:43:21.744,73,2017/01/13 09:43:21.745,58,2017/01/13 09:43:21.745,1640,2017/01/13 09:43:21.745,18,2017/01/13 09:43:21.745,2,2017/01/13 09:43:21.745,60,2017/01/13 09:43:21.745,41,2017/01/13 09:43:21.745,969,2017/01/13 09:43:21.745,57,2017/01/13 09:43:21.745,19.72
2017/01/13 09:43:21.994,0,2017/01/13 09:43:21.994,2,2017/01/13 09:43:21.994,176,2017/01/13 09:43:21.994,14.5,2017/01/13 09:43:21.994,609,2017/01/13 09:43:21.994,23,2017/01/13 09:43:21.994,19,2017/01/13 09:43:21.995,73,2017/01/13 09:43:21.995,58,2017/01/13 09:43:21.995,1640,2017/01/13 09:43:21.995,18,2017/01/13 09:43:21.995,2,2017/01/13 09:43:21.995,60,2017/01/13 09:43:21.995,42,2017/01/13 09:43:21.995,954,2017/01/13 09:43:21.995,57,2017/01/13 09:43:21.995,19.72
2017/01/13 09:43:22.244,0,2017/01/13 09:43:22.244,3,2017/01/13 09:43:22.244,176,2017/01/13 09:43:22.244,14.5,2017/01/13 09:43:22.244,607,2017/01/13 09:43:22.245,23,2017/01/13 09:43:22.245,19,2017/01/13 09:43:22.245,73,2017/01/13 09:43:22.245,60,2017/01/13 09:43:22.245,1643,2017/01/13 09:43:22.245,18,2017/01/13 09:43:22.245,0,2017/01/13 09:43:22.245,60,2017/01/13 09:43:22.245,42,2017/01/13 09:43:22.245,956,2017/01/13 09:43:22.245,57,2017/01/13 09:43:22.246,19.74
2017/01/13 09:43:22.494,0,2017/01/13 09:43:22.494,3,2017/01/13 09:43:22.494,176,2017/01/13 09:43:22.495,14.5,2017/01/13 09:43:22.495,604,2017/01/13 09:43:22.495,23,2017/01/13 09:43:22.495,19,2017/01/13 09:43:22.495,73,2017/01/13 09:43:22.495,62,2017/01/13 09:43:22.495,1643,2017/01/13 09:43:22.495,18,2017/01/13 09:43:22.495,0,2017/01/13 09:43:22.495,60,2017/01/13 09:43:22.495,42,2017/01/13 09:43:22.495,956,2017/01/13 09:43:22.496,57,2017/01/13 09:43:22.496,19.74
2017/01/13 09:43:22.744,0,2017/01/13 09:43:22.745,3,2017/01/13 09:43:22.745,176,2017/01/13 09:43:22.745,14.6,2017/01/13 09:43:22.745,604,2017/01/13 09:43:22.745,23,2017/01/13 09:43:22.746,19,2017/01/13 09:43:22.746,73,2017/01/13 09:43:22.746,62,2017/01/13 09:43:22.746,1643,2017/01/13 09:43:22.746,18,2017/01/13 09:43:22.746,0,2017/01/13 09:43:22.746,60,2017/01/13 09:43:22.746,42,2017/01/13 09:43:22.746,960,2017/01/13 09:43:22.746,57,2017/01/13 09:43:22.746,19.74
2017/01/13 09:43:22.994,0,2017/01/13 09:43:22.995,3,2017/01/13 09:43:22.995,176,2017/01/13 09:43:22.995,14.6,2017/01/13 09:43:22.995,599,2017/01/13 09:43:22.995,23,2017/01/13 09:43:22.995,19,2017/01/13 09:43:22.995,73,2017/01/13 09:43:22.995,62,2017/01/13 09:43:22.995,1645,2017/01/13 09:43:22.995,18,2017/01/13 09:43:22.996,0,2017/01/13 09:43:22.996,60,2017/01/13 09:43:22.996,42,2017/01/13 09:43:22.996,960,2017/01/13 09:43:22.996,57,2017/01/13 09:43:22.996,19.74
2017/01/13 09:43:23.245,0,2017/01/13 09:43:23.245,2,2017/01/13 09:43:23.246,176,2017/01/13 09:43:23.246,14.6,2017/01/13 09:43:23.246,599,2017/01/13 09:43:23.495,23,2017/01/13 09:43:23.495,19,2017/01/13 09:43:23.495,73,2017/01/13 09:43:23.495,62,2017/01/13 09:43:23.495,1645,2017/01/13 09:43:23.495,18,2017/01/13 09:43:23.496,0,2017/01/13 09:43:23.496,60,2017/01/13 09:43:23.496,42,2017/01/13 09:43:23.496,1006,2017/01/13 09:43:23.496,57,2017/01/13 09:43:23.496,19.72
2017/01/13 09:43:23.744,0,2017/01/13 09:43:23.744,2,2017/01/13 09:43:23.744,176,2017/01/13 09:43:23.745,14.5,2017/01/13 09:43:23.745,595,2017/01/13 09:43:23.745,24,2017/01/13 09:43:23.745,19,2017/01/13 09:43:23.745,73,2017/01/13 09:43:23.745,58,2017/01/13 09:43:23.745,1647,2017/01/13 09:43:23.745,18,2017/01/13 09:43:23.746,0,2017/01/13 09:43:23.746,60,2017/01/13 09:43:23.746,42,2017/01/13 09:43:23.746,1006,2017/01/13 09:43:23.746,57,2017/01/13 09:43:23.746,19.72
2017/01/13 09:43:23.995,0,2017/01/13 09:43:23.995,2,2017/01/13 09:43:23.995,176,2017/01/13 09:43:23.995,14.5,2017/01/13 09:43:23.995,595,2017/01/13 09:43:23.995,24,2017/01/13 09:43:23.995,19,2017/01/13 09:43:23.995,73,2017/01/13 09:43:23.996,58,2017/01/13 09:43:23.996,1647,2017/01/13 09:43:23.996,18,2017/01/13 09:43:23.996,0,2017/01/13 09:43:23.996,60,2017/01/13 09:43:23.996,42,2017/01/13 09:43:23.996,1017,2017/01/13 09:43:23.996,57,2017/01/13 09:43:23.996,19.72
2017/01/13 09:43:24.245,0,2017/01/13 09:43:24.245,2,2017/01/13 09:43:24.245,176,2017/01/13 09:43:24.245,14.5,2017/01/13 09:43:24.245,595,2017/01/13 09:43:24.245,24,2017/01/13 09:43:24.245,19,2017/01/13 09:43:24.246,73,2017/01/13 09:43:24.246,58,2017/01/13 09:43:24.246,1647,2017/01/13 09:43:24.246,18,2017/01/13 09:43:24.246,0,2017/01/13 09:43:24.246,60,2017/01/13 09:43:24.246,42,2017/01/13 09:43:24.246,1026,2017/01/13 09:43:24.246,57,2017/01/13 09:43:24.246,19.72
2017/01/13 09:43:24.496,0,2017/01/13 09:43:24.496,2,2017/01/13 09:43:24.496,176,2017/01/13 09:43:24.496,14.5,2017/01/13 09:43:24.496,593,2017/01/13 09:43:24.496,24,2017/01/13 09:43:24.496,19,2017/01/13 09:43:24.496,73,2017/01/13 09:43:24.496,60,2017/01/13 09:43:24.496,1647,2017/01/13 09:43:24.497,18,2017/01/13 09:43:24.497,0,2017/01/13 09:43:24.497,60,2017/01/13 09:43:24.497,42,2017/01/13 09:43:24.497,1026,2017/01/13 09:43:24.497,57,2017/01/13 09:43:24.497,19.72
2017/01/13 09:43:24.746,0,2017/01/13 09:43:24.746,2,2017/01/13 09:43:24.746,176,2017/01/13 09:43:24.746,14.5,2017/01/13 09:43:24.746,593,2017/01/13 09:43:24.746,24,2017/01/13 09:43:24.746,19,2017/01/13 09:43:24.746,73,2017/01/13 09:43:24.747,60,2017/01/13 09:43:24.747,1648,2017/01/13 09:43:24.747,18,2017/01/13 09:43:24.747,0,2017/01/13 09:43:24.747,60,2017/01/13 09:43:24.747,42,2017/01/13 09:43:24.747,1009,2017/01/13 09:43:24.747,57,2017/01/13 09:43:24.747,19.72
2017/01/13 09:43:24.996,0,2017/01/13 09:43:24.996,2,2017/01/13 09:43:24.996,176,2017/01/13 09:43:24.996,14.5,2017/01/13 09:43:24.996,593,2017/01/13 09:43:24.996,24,2017/01/13 09:43:24.997,19,2017/01/13 09:43:24.997,73,2017/01/13 09:43:24.997,62,2017/01/13 09:43:24.997,1649,2017/01/13 09:43:24.997,18,2017/01/13 09:43:24.997,0,2017/01/13 09:43:24.997,60,2017/01/13 09:43:24.997,42,2017/01/13 09:43:24.997,1009,2017/01/13 09:43:24.997,57,2017/01/13 09:43:24.998,19.72
2017/01/13 09:43:25.248,0,2017/01/13 09:43:25.249,2,2017/01/13 09:43:25.249,176,2017/01/13 09:43:25.249,14.5,2017/01/13 09:43:25.250,595,2017/01/13 09:43:25.250,24,2017/01/13 09:43:25.250,18,2017/01/13 09:43:25.251,73,2017/01/13 09:43:25.251,58,2017/01/13 09:43:25.251,1649,2017/01/13 09:43:25.252,18,2017/01/13 09:43:25.252,0,2017/01/13 09:43:25.254,60,2017/01/13 09:43:25.254,42,2017/01/13 09:43:25.254,1030,2017/01/13 09:43:25.254,57,2017/01/13 09:43:25.255,19.72
2017/01/13 09:43:25.496,0,2017/01/13 09:43:25.496,2,2017/01/13 09:43:25.497,176,2017/01/13 09:43:25.497,14.5,2017/01/13 09:43:25.497,595,2017/01/13 09:43:25.497,24,2017/01/13 09:43:25.497,18,2017/01/13 09:43:25.497,73,2017/01/13 09:43:25.497,58,2017/01/13 09:43:25.497,1643,2017/01/13 09:43:25.497,18,2017/01/13 09:43:25.497,0,2017/01/13 09:43:25.497,60,2017/01/13 09:43:25.498,42,2017/01/13 09:43:25.498,1012,2017/01/13 09:43:25.498,57,2017/01/13 09:43:25.498,19.72
2017/01/13 09:43:25.747,0,2017/01/13 09:43:25.747,2,2017/01/13 09:43:25.747,176,2017/01/13 09:43:25.747,14.5,2017/01/13 09:43:25.747,591,2017/01/13 09:43:25.747,25,2017/01/13 09:43:25.747,19,2017/01/13 09:43:25.747,73,2017/01/13 09:43:25.747,58,2017/01/13 09:43:25.747,1640,2017/01/13 09:43:25.747,18,2017/01/13 09:43:25.748,0,2017/01/13 09:43:25.748,60,2017/01/13 09:43:25.748,42,2017/01/13 09:43:25.748,1012,2017/01/13 09:43:25.748,57,2017/01/13 09:43:25.748,19.72
2017/01/13 09:43:25.997,0,2017/01/13 09:43:25.997,2,2017/01/13 09:43:25.997,176,2017/01/13 09:43:25.997,14.5,2017/01/13 09:43:25.997,591,2017/01/13 09:43:25.997,25,2017/01/13 09:43:25.997,19,2017/01/13 09:43:25.997,73,2017/01/13 09:43:25.997,58,2017/01/13 09:43:25.998,1640,2017/01/13 09:43:25.998,18,2017/01/13 09:43:25.998,0,2017/01/13 09:43:25.998,60,2017/01/13 09:43:25.998,42,2017/01/13 09:43:25.998,1028,2017/01/13 09:43:25.999,57,2017/01/13 09:43:25.999,19.71
2017/01/13 09:43:26.247,0,2017/01/13 09:43:26.247,2,2017/01/13 09:43:26.247,176,2017/01/13 09:43:26.248,14.5,2017/01/13 09:43:26.248,593,2017/01/13 09:43:26.248,25,2017/01/13 09:43:26.248,19,2017/01/13 09:43:26.248,73,2017/01/13 09:43:26.248,62,2017/01/13 09:43:26.248,1638,2017/01/13 09:43:26.248,18,2017/01/13 09:43:26.248,0,2017/01/13 09:43:26.248,60,2017/01/13 09:43:26.248,42,2017/01/13 09:43:26.248,1033,2017/01/13 09:43:26.249,57,2017/01/13 09:43:26.249,19.72
2017/01/13 09:43:26.497,0,2017/01/13 09:43:26.497,2,2017/01/13 09:43:26.497,176,2017/01/13 09:43:26.497,14.5,2017/01/13 09:43:26.497,593,2017/01/13 09:43:26.498,25,2017/01/13 09:43:26.498,19,2017/01/13 09:43:26.499,73,2017/01/13 09:43:26.499,62,2017/01/13 09:43:26.499,1638,2017/01/13 09:43:26.499,18,2017/01/13 09:43:26.499,0,2017/01/13 09:43:26.499,60,2017/01/13 09:43:26.499,41,2017/01/13 09:43:26.499,1033,2017/01/13 09:43:26.499,57,2017/01/13 09:43:26.499,19.72
2017/01/13 09:43:26.747,0,2017/01/13 09:43:26.747,2,2017/01/13 09:43:26.747,176,2017/01/13 09:43:26.747,14.5,2017/01/13 09:43:26.748,593,2017/01/13 09:43:26.748,26,2017/01/13 09:43:26.748,19,2017/01/13 09:43:26.748,73,2017/01/13 09:43:26.748,62,2017/01/13 09:43:26.748,1639,2017/01/13 09:43:26.748,18,2017/01/13 09:43:26.748,2,2017/01/13 09:43:26.748,60,2017/01/13 09:43:26.748,41,2017/01/13 09:43:26.748,1097,2017/01/13 09:43:26.748,57,2017/01/13 09:43:26.749,19.71
2017/01/13 09:43:26.997,0,2017/01/13 09:43:26.997,2,2017/01/13 09:43:26.998,176,2017/01/13 09:43:26.998,14.5,2017/01/13 09:43:26.998,596,2017/01/13 09:43:26.998,26,2017/01/13 09:43:26.998,19,2017/01/13 09:43:26.998,73,2017/01/13 09:43:26.998,60,2017/01/13 09:43:26.998,1638,2017/01/13 09:43:26.998,19,2017/01/13 09:43:26.998,2,2017/01/13 09:43:26.998,60,2017/01/13 09:43:26.999,41,2017/01/13 09:43:26.999,1097,2017/01/13 09:43:26.999,57,2017/01/13 09:43:27.000,19.71
2017/01/13 09:43:27.247,0,2017/01/13 09:43:27.247,2,2017/01/13 09:43:27.247,176,2017/01/13 09:43:27.248,14.5,2017/01/13 09:43:27.248,599,2017/01/13 09:43:27.248,28,2017/01/13 09:43:27.248,19,2017/01/13 09:43:27.248,73,2017/01/13 09:43:27.248,60,2017/01/13 09:43:27.248,1638,2017/01/13 09:43:27.248,19,2017/01/13 09:43:27.248,2,2017/01/13 09:43:27.248,60,2017/01/13 09:43:27.248,41,2017/01/13 09:43:27.249,1144,2017/01/13 09:43:27.249,57,2017/01/13 09:43:27.249,19.71